When you browse on this site, cookies collect data to enhance your experience and personalize the content and advertising you see.
Visit our Privacy Policy to learn more. By continuing to use the site, you agree to this use of cookies and data.
  • In United Kingdom
  • List of Countries
  • For 7 days
  • Water Temperature
  • Weather Map
  • Weather Widgets
  • user-avatar
    Login

    Hourly Weather Picardy

    Today, 22 August, Thursday

    Time Temperature Precipitation Wind Pressure Humidity
    00:00 +13°C° 0 mm 0 mps 763 mmHg 62%
    01:00 +13°C° 0 mm 0 mps 763 mmHg 63%
    02:00 +12°C° 0 mm 0 mps 762 mmHg 63%
    03:00 +12°C° 0 mm 0 mps 762 mmHg 64%
    04:00 +12°C° 0 mm 0 mps 762 mmHg 64%
    05:00 +13°C° 0 mm 0 mps 762 mmHg 65%
    06:00 +14°C° 0 mm 0 mps 763 mmHg 67%
    07:00 +18°C° 0 mm 1 mps 763 mmHg 61%
    08:00 +20°C° 0 mm 1 mps 763 mmHg 54%
    09:00 +22°C° 0 mm 1 mps 763 mmHg 48%
    10:00 +23°C° 0 mm 1 mps 763 mmHg 46%
    11:00 +25°C° 0 mm 1 mps 763 mmHg 43%
    12:00 +26°C° 0 mm 1 mps 763 mmHg 40%
    13:00 +26°C° 0 mm 1 mps 763 mmHg 39%
    14:00 +26°C° 0 mm 1 mps 763 mmHg 38%
    15:00 +27°C° 0 mm 1 mps 762 mmHg 36%
    16:00 +25°C° 0 mm 2 mps 762 mmHg 43%
    17:00 +24°C° 0 mm 2 mps 762 mmHg 50%
    18:00 +23°C° 0 mm 2 mps 762 mmHg 56%
    19:00 +20°C° 0 mm 2 mps 762 mmHg 61%
    20:00 +18°C° 0 mm 2 mps 763 mmHg 66%
    21:00 +16°C° 0 mm 2 mps 763 mmHg 71%
    22:00 +16°C° 0 mm 2 mps 763 mmHg 72%
    23:00 +15°C° 0 mm 2 mps 763 mmHg 72%

    Tomorrow, 23 August, Friday

    Time Temperature Precipitation Wind Pressure Humidity
    00:00 +15°C° 0 mm 2 mps 763 mmHg 72%
    01:00 +15°C° 0 mm 2 mps 763 mmHg 73%
    02:00 +14°C° 0 mm 2 mps 762 mmHg 74%
    03:00 +14°C° 0 mm 2 mps 762 mmHg 75%
    04:00 +14°C° 0 mm 2 mps 762 mmHg 76%
    05:00 +14°C° 0 mm 2 mps 762 mmHg 76%
    06:00 +15°C° 0 mm 2 mps 762 mmHg 77%
    07:00 +17°C° 0 mm 2 mps 762 mmHg 69%
    08:00 +19°C° 0 mm 2 mps 762 mmHg 62%
    09:00 +23°C° 0 mm 2 mps 763 mmHg 54%
    10:00 +24°C° 0 mm 2 mps 762 mmHg 51%
    11:00 +25°C° 0 mm 2 mps 762 mmHg 47%
    12:00 +27°C° 0 mm 2 mps 761 mmHg 43%
    13:00 +27°C° 0 mm 2 mps 761 mmHg 42%
    14:00 +28°C° 0 mm 2 mps 761 mmHg 40%
    15:00 +28°C° 0 mm 2 mps 761 mmHg 38%
    16:00 +27°C° 0 mm 2 mps 760 mmHg 43%
    17:00 +26°C° 0 mm 2 mps 760 mmHg 48%
    18:00 +25°C° 0 mm 2 mps 760 mmHg 53%
    19:00 +23°C° 0 mm 2 mps 760 mmHg 57%
    20:00 +21°C° 0 mm 2 mps 760 mmHg 61%
    21:00 +19°C° 0 mm 2 mps 760 mmHg 64%
    22:00 +19°C° 0 mm 2 mps 760 mmHg 68%
    23:00 +18°C° 0 mm 2 mps 759 mmHg 71%

    Day after tomorrow, 24 August, Saturday

    Time Temperature Precipitation Wind Pressure Humidity
    00:00 +17°C° 0 mm 2 mps 759 mmHg 75%
    01:00 +17°C° 0 mm 2 mps 759 mmHg 76%
    02:00 +17°C° 0 mm 2 mps 758 mmHg 78%
    03:00 +16°C° 0 mm 1 mps 758 mmHg 80%
    04:00 +16°C° 0 mm 2 mps 758 mmHg 79%
    05:00 +16°C° 0 mm 2 mps 758 mmHg 78%
    06:00 +16°C° 0 mm 2 mps 758 mmHg 77%
    07:00 +19°C° 0 mm 2 mps 758 mmHg 70%
    08:00 +21°C° 0 mm 2 mps 758 mmHg 62%
    09:00 +25°C° 0 mm 3 mps 758 mmHg 54%
    10:00 +26°C° 0 mm 3 mps 758 mmHg 50%
    11:00 +28°C° 0 mm 3 mps 758 mmHg 45%
    12:00 +29°C° 0 mm 2 mps 757 mmHg 40%
    13:00 +30°C° 0 mm 2 mps 757 mmHg 39%
    14:00 +30°C° 0 mm 2 mps 757 mmHg 37%
    15:00 +30°C° 0 mm 2 mps 756 mmHg 35%
    16:00 +29°C° 0 mm 2 mps 756 mmHg 40%
    17:00 +28°C° 0 mm 1 mps 756 mmHg 45%
    18:00 +26°C° 0 mm 1 mps 755 mmHg 51%
    19:00 +25°C° 0 mm 2 mps 756 mmHg 54%
    20:00 +24°C° 0 mm 2 mps 756 mmHg 58%
    21:00 +21°C° 0 mm 2 mps 756 mmHg 61%
    22:00 +21°C° 0 mm 2 mps 756 mmHg 63%
    23:00 +20°C° 0 mm 2 mps 756 mmHg 65%

    25 August, Sunday

    Time Temperature Precipitation Wind Pressure Humidity
    00:00 +21°C° 0 mm 1 mps 755 mmHg 67%
    01:00 +20°C° 0 mm 1 mps 755 mmHg 68%
    02:00 +20°C° 0 mm 1 mps 755 mmHg 69%
    03:00 +19°C° 0 mm 1 mps 755 mmHg 69%
    04:00 +19°C° 0 mm 1 mps 755 mmHg 70%
    05:00 +20°C° 0 mm 1 mps 755 mmHg 71%
    06:00 +20°C° 0 mm 1 mps 755 mmHg 71%
    07:00 +22°C° 0 mm 1 mps 756 mmHg 65%
    08:00 +25°C° 0 mm 2 mps 756 mmHg 58%
    09:00 +27°C° 0 mm 2 mps 756 mmHg 52%
    10:00 +29°C° 0 mm 2 mps 756 mmHg 46%
    11:00 +30°C° 0 mm 2 mps 756 mmHg 40%
    12:00 +32°C° 0 mm 2 mps 756 mmHg 35%
    13:00 +32°C° 0 mm 2 mps 756 mmHg 32%
    14:00 +33°C° 0 mm 1 mps 755 mmHg 30%
    15:00 +33°C° 0 mm 1 mps 755 mmHg 28%
    16:00 +31°C° 0 mm 1 mps 755 mmHg 33%
    17:00 +30°C° 0 mm 2 mps 755 mmHg 38%
    18:00 +28°C° 0 mm 2 mps 755 mmHg 43%
    19:00 +27°C° 0 mm 2 mps 755 mmHg 46%
    20:00 +25°C° 0 mm 2 mps 756 mmHg 48%
    21:00 +24°C° 0 mm 2 mps 756 mmHg 51%
    22:00 +23°C° 0 mm 2 mps 756 mmHg 53%
    23:00 +23°C° 0 mm 2 mps 756 mmHg 55%

    26 August, Monday

    Time Temperature Precipitation Wind Pressure Humidity
    00:00 +22°C° 0 mm 1 mps 756 mmHg 56%
    01:00 +21°C° 0 mm 2 mps 756 mmHg 58%
    02:00 +20°C° 0 mm 2 mps 755 mmHg 59%
    03:00 +20°C° 0 mm 2 mps 755 mmHg 60%
    04:00 +20°C° 0 mm 2 mps 755 mmHg 64%
    05:00 +20°C° 0 mm 2 mps 755 mmHg 67%
    06:00 +20°C° 0 mm 2 mps 755 mmHg 70%
    07:00 +23°C° 0 mm 2 mps 755 mmHg 64%
    08:00 +26°C° 0 mm 2 mps 755 mmHg 58%
    09:00 +28°C° 0 mm 3 mps 755 mmHg 51%
    10:00 +30°C° 0 mm 3 mps 755 mmHg 47%
    11:00 +31°C° 0 mm 3 mps 755 mmHg 42%
    12:00 +33°C° 0 mm 3 mps 755 mmHg 38%
    13:00 +33°C° 0 mm 3 mps 754 mmHg 36%
    14:00 +34°C° 0 mm 3 mps 754 mmHg 34%
    15:00 +34°C° 0 mm 2 mps 753 mmHg 32%
    16:00 +31°C° 0 mm 2 mps 753 mmHg 37%
    17:00 +30°C° 0 mm 3 mps 753 mmHg 43%
    18:00 +28°C° 0 mm 3 mps 752 mmHg 48%
    19:00 +27°C° 0 mm 2 mps 753 mmHg 50%
    20:00 +26°C° 0 mm 2 mps 753 mmHg 52%
    21:00 +24°C° 0 mm 2 mps 753 mmHg 53%
    22:00 +24°C° 0 mm 2 mps 753 mmHg 55%
    23:00 +23°C° 0 mm 2 mps 753 mmHg 57%

    27 August, Tuesday

    Time Temperature Precipitation Wind Pressure Humidity
    00:00 +23°C° 0 mm 2 mps 752 mmHg 59%
    01:00 +21°C° 0 mm 2 mps 752 mmHg 60%
    02:00 +21°C° 0 mm 2 mps 752 mmHg 62%
    03:00 +21°C° 0 mm 2 mps 752 mmHg 64%
    04:00 +21°C° 0 mm 2 mps 752 mmHg 65%
    05:00 +21°C° 0 mm 2 mps 752 mmHg 66%
    06:00 +21°C° 0 mm 2 mps 752 mmHg 67%
    07:00 +23°C° 0.1 mm 2 mps 752 mmHg 65%
    08:00 +24°C° 0.1 mm 3 mps 752 mmHg 63%
    09:00 +25°C° 0.1 mm 3 mps 753 mmHg 60%
    10:00 +25°C° 0.6 mm 3 mps 753 mmHg 63%
    11:00 +25°C° 0.6 mm 4 mps 753 mmHg 66%
    12:00 +25°C° 0.6 mm 4 mps 753 mmHg 69%
    13:00 +25°C° 0 mm 4 mps 753 mmHg 66%
    14:00 +26°C° 0 mm 4 mps 753 mmHg 63%
    15:00 +26°C° 0 mm 4 mps 753 mmHg 60%
    16:00 +25°C° 0.2 mm 4 mps 753 mmHg 67%
    17:00 +22°C° 0.2 mm 3 mps 753 mmHg 74%
    18:00 +21°C° 0.2 mm 3 mps 753 mmHg 80%
    19:00 +20°C° 0.5 mm 3 mps 754 mmHg 84%
    20:00 +19°C° 0.5 mm 3 mps 754 mmHg 88%
    21:00 +18°C° 0.5 mm 3 mps 754 mmHg 92%
    22:00 +17°C° 0.2 mm 3 mps 754 mmHg 93%
    23:00 +17°C° 0.2 mm 3 mps 754 mmHg 93%
    Show more